LUSAT (LO-19)

Last updated on Wed Sep 09 2026 00:03:14 GMT+0000 (Coordinated Universal Time)

1 20442U 90005G 26251.55488091 .00000069 00000+0 41251-4 0 9993 2 20442 98.8830 275.6482 0010865 326.2196 33.8294 14.34142647914349
UTC large
Height (km)
Speed (km/s)
/
Latitude / Longitude
Inclination (degrees)
Orbital Period (minutes)
Azimuth
Elevation
Range (km)
Doppler Factor

Next 0 passes for location: London (51.5072 / 0.1276)

No passes found over London.
LUSAT (LO-19)